This is the latest recevied weather packets stored in our database for station/object PA2JOK. If no packets are shown the sender has not sent any weather packets the latest 10 day(s).
| Time | Temp. | Humidity | Pressure | Rain* | Wind** | Luminosity | Snow |
|---|---|---|---|---|---|---|---|
| 1777677483 | 15.56° C | 41% | 1018.2 hPa | 0 mm | - | - | - |
| 1777676583 | 16.11° C | 39% | 1018.2 hPa | 0 mm | - | - | - |
| 1777675684 | 16.67° C | 38% | 1018.3 hPa | 0 mm | - | - | - |
| 1777674783 | 16.67° C | 38% | 1018.4 hPa | 0 mm | - | - | - |
| 1777673883 | 17.22° C | 37% | 1018.3 hPa | 0 mm | - | - | - |
| 1777672983 | 17.78° C | 35% | 1018.5 hPa | 0 mm | - | - | - |
| 1777672082 | 17.78° C | 35% | 1018.5 hPa | 0 mm | - | - | - |
| 1777671182 | 18.33° C | 34% | 1018.5 hPa | 0 mm | - | - | - |
| 1777670283 | 18.33° C | 34% | 1018.6 hPa | 0 mm | - | - | - |
| 1777669383 | 18.33° C | 33% | 1018.5 hPa | 0 mm | - | - | - |
| 1777668483 | 18.89° C | 33% | 1018.7 hPa | 0 mm | - | - | - |
| 1777667583 | 18.89° C | 32% | 1018.8 hPa | 0 mm | - | - | - |
| 1777666683 | 19.44° C | 32% | 1018.8 hPa | 0 mm | - | - | - |
| 1777665784 | 20° C | 31% | 1018.7 hPa | 0 mm | - | - | - |
| 1777664883 | 20.56° C | 30% | 1018.7 hPa | 0 mm | - | - | - |
| 1777663982 | 20.56° C | 30% | 1018.7 hPa | 0 mm | - | - | - |
| 1777663083 | 21.11° C | 29% | 1018.6 hPa | 0 mm | - | - | - |
| 1777662183 | 21.11° C | 29% | 1018.5 hPa | 0 mm | - | - | - |
| 1777661283 | 21.67° C | 28% | 1018.6 hPa | 0 mm | - | - | - |
| 1777660383 | 21.67° C | 27% | 1018.6 hPa | 0 mm | - | - | - |
| 1777659483 | 22.22° C | 27% | 1018.7 hPa | 0 mm | - | - | - |
| 1777658583 | 22.22° C | 26% | 1018.5 hPa | 0 mm | - | - | - |
| 1777657683 | 22.78° C | 25% | 1018.6 hPa | 0 mm | - | - | - |
| 1777656783 | 22.78° C | 25% | 1018.6 hPa | 0 mm | - | - | - |
| 1777655882 | 22.78° C | 24% | 1018.7 hPa | 0 mm | - | - | - |
* Rain latest hour (hover to see other rain measurements)
** Current wind speed in m/s (hover to see current wind gust speed)